Lapse_Rate
0.9 1.8 2.4 2.3 3.3 3.7 4.1 4.8 4.9 5.1 4.9 4.7 4.5 4.9 4.8 4.8 5.4 5.5 5.2 5.3 6.0 6.4 6.5 6.7 6.9 6.6 6.5 6.1 5.9 5.9 5.6 5.4 5.3 5.3 5.1 5.8 6.3 6.3 6.2 5.9 5.9 6.1 5.5
0.7 1.6 2.7 2.8 3.3 3.7 4.2 4.7 4.6 4.8 4.8 4.8 4.8 4.9 5.0 4.8 5.1 5.2 5.4 5.8 6.2 6.6 6.9 7.1 6.8 6.6 6.5 6.4 5.8 5.5 5.3 4.9 4.9 4.3 4.4 4.4 5.3 6.6 6.7 6.8 5.9 5.7 5.0
1.5 2.3 2.5 2.9 3.5 3.5 4.1 4.1 4.5 4.4 4.8 4.8 4.8 4.9 4.9 5.0 5.1 5.1 5.2 5.7 6.6 6.8 7.2 6.9 6.8 6.7 6.0 6.0 5.8 5.2 5.2 4.8 4.2 3.5 3.6 3.5 4.1 5.7 6.6 6.4 5.7 5.8 5.0
1.9 2.9 2.8 2.9 3.6 4.0 3.8 3.9 4.1 4.1 4.6 4.8 4.9 5.0 5.1 5.2 5.1 4.8 5.5 6.0 6.5 6.4 7.5 6.1 6.3 6.8 5.6 5.0 5.2 5.0 4.7 4.2 3.4 3.5 3.2 4.1 5.0 5.6 6.8 6.7 6.8 6.3 6.6
2.7 2.8 3.4 3.6 3.9 4.1 4.2 4.0 4.0 4.0 4.2 4.6 4.8 4.7 5.1 5.2 5.0 5.4 5.6 5.9 5.7 5.9 5.8 5.4 5.2 5.5 5.9 5.3 4.8 4.6 4.5 3.8 3.4 3.8 4.1 4.6 5.0 7.1 6.1 5.5 5.7 5.8 5.8
2.7 3.7 3.9 4.0 4.1 4.7 4.4 4.3 4.1 4.1 4.1 4.3 4.5 4.8 5.1 5.1 5.3 5.7 6.2 5.2 4.8 5.3 5.4 5.1 5.2 4.8 4.6 4.4 4.2 4.0 4.1 3.9 3.7 3.5 4.4 5.8 5.8 8.2 7.8 7.4 7.3 7.2 6.8
2.6 4.1 3.8 4.4 4.8 4.9 4.9 4.8 4.5 4.2 4.3 4.2 4.5 4.9 5.1 5.2 6.0 5.7 6.2 5.2 4.9 5.0 4.7 5.2 5.2 4.5 4.3 4.3 4.6 5.3 4.0 4.1 4.0 3.8 4.4 5.4 8.1 7.6 7.5 7.6 9.1 7.4 6.9
1.9 1.4 6.3 4.1 5.3 5.2 5.2 5.0 4.9 4.6 4.4 4.4 4.5 4.9 5.2 5.7 5.7 5.3 5.8 5.6 5.1 4.6 4.4 4.9 5.2 4.9 4.2 4.6 4.0 5.3 5.3 4.1 3.4 4.2 4.9 7.2 7.5 7.8 8.0 8.7 8.2 8.6 7.0
3.6 1.5 1.3 6.0 5.4 5.4 5.3 5.0 5.2 5.0 4.6 4.5 4.6 4.9 5.4 5.6 5.6 5.1 5.6 5.9 5.6 4.7 4.5 5.1 5.2 4.7 4.6 4.4 4.6 4.8 4.7 4.5 4.1 3.9 5.6 7.8 8.5 7.0 6.5 7.6 9.1 7.9 8.0
3.5 2.5 1.4 0.4 4.4 5.8 5.3 5.3 5.2 5.2 4.7 4.5 4.6 4.7 5.0 5.2 5.2 5.3 5.3 5.8 5.5 5.1 4.2 5.2 5.1 4.8 4.3 4.9 4.4 4.4 4.6 4.5 3.9 5.8 6.9 8.2 8.9 8.1 7.3 4.6 6.8 7.8 7.6
1.9 3.6 3.0 0.6 0.4 3.8 5.3 5.1 5.1 5.1 5.1 4.6 4.6 4.5 4.4 4.7 4.9 5.0 5.0 5.5 5.4 4.7 4.1 5.3 4.8 4.9 4.5 4.8 4.7 4.4 4.2 3.5 3.6 4.7 7.6 8.3 8.8 8.6 6.7 7.3 4.4 5.4 5.3
1.8 2.2 3.8 3.8 3.1 1.2 1.2 5.5 5.0 4.9 4.9 5.3 5.3 4.6 4.5 4.8 4.6 5.0 5.2 5.3 5.3 4.5 4.2 5.6 4.5 4.1 3.9 3.5 3.7 4.0 3.4 3.4 3.5 4.3 7.0 8.1 8.5 8.1 8.2 6.3 4.4 4.0 5.0
3.8 2.5 3.6 4.8 6.1 2.4 1.7 4.5 5.2 5.2 5.4 5.4 5.6 5.4 5.1 4.7 4.7 5.0 4.9 5.3 5.3 4.6 4.1 3.6 2.0 1.5 1.7 1.8 2.4 2.6 2.8 3.3 3.9 5.1 7.3 8.0 8.2 7.6 7.5 6.9 6.1 3.8 4.0
4.6 3.2 3.0 6.0 4.0 4.1 2.5 1.7 4.8 5.1 5.2 5.1 5.1 6.1 5.2 4.6 4.7 5.4 5.5 5.1 5.3 3.9 1.2 0.2 0.3 0.9 2.0 2.3 2.5 2.3 2.6 2.8 3.4 4.1 6.8 7.0 7.2 6.9 6.4 6.3 5.4 3.4 4.0
5.9 4.2 3.6 4.3 6.8 6.8 4.7 1.7 2.3 4.9 4.7 4.9 4.7 5.9 5.6 5.3 5.0 5.3 5.3 5.3 3.7 1.6 0.5 -0.0 -0.4 0.3 1.3 1.8 2.2 2.2 1.9 2.3 3.3 3.8 4.5 6.7 5.8 6.8 4.6 5.2 5.4 3.5 3.2
7.8 6.2 5.1 4.7 5.6 5.8 4.6 3.5 2.8 2.4 4.4 5.5 4.9 5.4 5.4 5.2 5.1 5.0 5.1 4.8 2.8 1.7 0.8 0.2 -0.1 0.4 0.4 1.5 1.1 1.8 1.4 1.8 2.5 3.0 3.6 5.8 5.1 4.9 5.3 4.1 4.7 3.6 3.3
7.8 7.1 6.1 6.9 6.4 6.5 5.8 5.6 3.3 1.9 4.0 4.9 4.8 5.0 5.4 5.2 5.1 4.9 4.4 3.6 3.5 1.4 0.5 0.0 0.1 0.9 0.8 1.2 0.2 0.9 1.0 1.3 1.8 2.0 2.9 4.2 4.8 4.9 4.1 3.9 3.5 3.6 3.4
6.7 7.7 7.1 8.1 7.5 6.7 6.4 4.2 4.0 3.1 1.8 4.9 4.7 4.5 5.0 5.3 4.9 4.5 3.6 3.6 2.8 1.8 1.7 0.3 0.9 1.1 0.9 1.0 0.1 -0.6 0.2 1.0 1.4 1.7 2.3 2.4 2.4 2.6 4.2 3.6 3.7 3.4 3.2
3.3 4.1 6.9 7.0 7.2 6.2 5.8 5.9 4.0 5.0 2.7 3.8 5.2 4.5 4.8 4.8 4.5 4.1 3.5 3.0 2.9 2.7 1.9 0.3 0.8 1.6 0.9 0.2 0.1 -1.1 -0.6 -0.2 0.7 1.2 1.4 1.6 1.4 1.2 1.1 1.0 1.7 3.2 3.4
2.0 2.7 3.8 6.1 7.0 6.6 5.9 5.0 4.1 3.7 3.5 4.6 4.7 4.8 4.5 4.6 4.2 4.1 3.5 2.3 3.5 3.2 1.8 1.1 0.5 1.9 1.3 0.4 0.7 -1.0 -1.3 -0.5 0.5 0.4 0.6 0.9 1.0 1.0 1.3 1.5 1.7 2.2 3.2
1.5 1.7 1.8 3.3 3.9 5.8 5.9 4.6 4.4 4.5 3.2 5.2 4.1 4.6 4.6 4.0 4.0 3.7 3.3 2.4 3.3 3.1 1.7 1.0 0.8 0.6 -0.1 0.2 -1.2 0.1 0.0 -0.2 -0.4 -0.7 -0.2 -0.1 -0.1 0.1 0.4 0.5 0.7 1.3 1.9
1.3 1.9 1.0 1.7 2.8 3.4 3.3 6.1 6.3 3.8 2.8 3.2 4.5 3.5 4.2 4.2 3.6 3.0 2.4 2.7 3.2 3.1 2.2 0.6 0.7 1.5 -0.8 2.1 0.3 0.0 3.5 2.9 1.4 -0.1 -1.0 -0.9 -1.1 -0.8 -0.9 -0.4 -0.1 0.0 0.6
1.9 1.6 1.3 0.4 0.9 2.1 2.8 3.4 4.8 4.1 3.5 4.8 4.7 4.9 3.4 3.6 3.7 2.9 2.2 2.7 2.7 2.4 1.6 1.6 1.1 0.9 1.2 1.3 2.3 -1.0 1.0 1.7 0.9 -0.4 -1.4 -2.3 -2.4 -3.1 -1.9 -1.2 -0.9 -0.7 -0.5
2.3 2.0 2.3 0.7 0.3 1.4 1.7 2.8 3.4 5.1 5.3 3.8 5.0 4.1 3.6 2.9 2.6 3.1 2.5 2.0 2.5 1.9 1.8 1.2 1.5 1.2 0.8 1.1 1.2 -1.5 -2.8 -3.6 0.1 0.1 -2.1 -2.5 -3.3 -2.7 -3.3 -2.7 -1.8 -1.3 -0.9
2.9 2.1 2.6 2.2 0.4 0.1 0.4 1.9 2.0 3.7 5.5 4.6 5.8 4.2 3.7 2.9 2.6 2.7 1.9 2.5 2.2 1.4 1.7 0.8 2.0 1.7 1.6 0.7 1.7 -1.9 -2.1 -3.3 -4.0 -3.2 -2.9 -3.2 -3.6 -4.3 -3.8 -3.2 -2.2 -1.8 -1.3
3.3 2.8 2.0 2.8 1.3 1.1 1.0 0.8 1.5 3.4 4.1 6.2 6.0 4.6 4.0 3.5 3.1 2.8 2.6 2.3 2.3 1.6 1.4 1.8 0.3 1.4 1.5 2.1 1.2 -2.6 -2.7 -2.2 -3.1 -3.8 -5.1 -5.5 -3.6 -4.0 -4.6 -4.0 -3.3 -2.7 -1.8
Wind_Speed
3 13 24 27 26 26 26 23 24 23 25 27 28 28 28 29 28 25 23 22 22 23 23 21 22 21 22 24 24 24 26 26 26 26 27 25 25 26 27 25 23 22 26
7 20 26 27 28 27 26 25 25 24 24 26 27 28 28 29 28 26 24 22 23 23 22 20 22 21 21 22 22 23 23 24 25 24 23 27 26 25 23 22 21 22 24
10 19 26 28 28 29 27 27 25 26 25 25 26 27 27 27 28 27 25 24 23 24 21 22 22 21 22 21 21 23 22 22 21 22 19 19 22 23 22 20 20 21 21
12 18 23 29 29 27 29 28 27 28 26 25 26 26 26 26 26 27 27 26 25 26 23 22 22 19 21 22 21 21 20 19 20 21 18 16 18 21 20 19 18 18 18
6 18 22 28 28 28 27 28 28 28 28 26 25 25 25 25 25 26 27 27 27 26 23 22 23 22 20 21 22 21 19 20 20 22 20 17 17 17 18 18 18 19 19
17 13 20 27 27 26 27 27 28 28 29 28 25 24 25 25 24 26 27 28 28 29 23 23 22 21 19 21 20 22 21 19 20 21 19 15 16 18 18 18 19 19 20
18 18 19 25 26 27 26 25 27 28 28 28 26 25 25 24 26 26 27 27 28 28 24 22 22 21 23 23 21 20 21 20 21 19 17 16 16 18 19 18 18 19 20
17 25 13 24 27 27 27 26 26 27 28 28 27 25 25 24 27 28 27 26 28 27 23 24 23 23 25 24 23 21 17 19 20 14 15 13 20 19 17 18 18 17 19
17 18 26 16 25 26 27 27 27 27 29 29 28 27 25 26 27 29 28 25 26 26 22 23 23 22 24 24 23 21 19 18 16 16 13 14 17 18 19 18 17 18 18
12 12 16 22 15 21 23 28 27 27 27 29 27 26 26 26 27 27 27 26 27 23 23 22 21 21 25 24 23 21 21 19 14 12 16 15 17 18 18 19 18 17 17
12 13 11 17 21 16 21 25 26 27 25 26 25 26 28 23 25 26 25 26 27 24 24 22 21 24 25 23 22 21 21 18 17 16 12 15 17 17 17 17 18 17 17
15 15 12 12 15 20 24 22 24 23 24 23 23 23 22 23 23 21 25 26 26 26 25 23 21 26 20 17 17 20 19 18 15 17 14 16 17 15 16 17 17 17 15
12 10 11 8 10 17 11 11 15 18 18 21 23 22 19 19 22 20 20 22 21 25 21 20 19 18 19 18 15 17 19 18 17 13 15 16 16 16 16 16 16 17 15
11 12 16 6 13 12 11 8 10 11 16 13 22 24 17 13 15 16 15 18 19 16 14 17 16 19 19 19 19 16 16 16 15 13 16 16 16 16 15 14 15 16 15
11 8 15 14 4 4 10 9 11 11 10 18 20 24 22 13 11 17 16 18 15 15 15 14 14 15 15 16 15 17 13 15 16 15 16 15 16 15 16 14 13 15 14
15 8 14 13 13 8 8 12 9 13 14 17 19 22 27 22 15 12 12 13 16 17 15 15 13 13 11 14 12 14 13 15 15 13 15 15 14 15 14 14 12 13 13
12 9 13 12 12 10 10 5 11 12 8 14 15 27 28 27 22 18 10 10 16 17 19 17 13 14 11 12 8 12 15 15 15 15 12 14 13 13 13 13 13 12 12
14 12 10 12 16 12 5 8 10 12 7 13 16 24 29 29 29 19 12 12 20 20 19 12 8 8 7 7 6 4 9 14 14 15 14 12 11 10 10 11 11 11 12
13 16 1 9 12 15 5 4 9 15 8 9 16 17 27 30 31 20 12 15 24 18 13 10 7 10 9 7 7 4 6 7 9 12 12 11 12 12 11 11 9 10 10
13 14 14 9 14 9 7 6 7 10 8 8 10 15 26 24 29 21 15 17 24 12 11 10 11 7 8 8 8 6 4 5 7 7 8 8 8 9 7 7 7 7 8
14 15 15 14 14 10 6 6 8 9 7 9 12 15 22 24 28 18 14 17 17 15 16 14 12 15 5 9 6 4 4 4 3 2 4 5 5 6 6 7 6 6 6
16 14 17 16 15 10 8 7 7 5 4 6 9 5 8 16 23 17 18 18 19 15 16 17 17 9 4 9 4 4 3 2 2 1 1 3 6 7 7 8 8 8 7
16 16 16 16 16 13 12 11 9 6 6 6 5 11 8 4 17 19 21 18 19 17 16 18 17 15 12 7 13 5 3 4 3 1 4 3 4 5 9 11 11 11 10
15 15 14 16 16 13 14 10 11 10 9 3 7 6 11 13 5 10 15 18 18 14 18 17 15 13 13 12 7 2 2 5 4 2 2 3 4 5 7 11 13 13 12
16 15 13 15 14 13 14 12 10 14 9 4 7 15 15 14 13 12 12 10 13 11 15 20 16 14 12 11 11 3 2 1 3 3 3 4 1 4 8 11 15 16 14
14 15 17 16 15 12 12 13 13 16 11 7 7 10 12 12 12 16 18 17 14 12 15 15 17 15 13 12 9 5 4 4 4 3 3 2 3 4 4 9 12 16 18
Wind_Direction
216 178 172 170 172 166 159 156 147 142 137 137 137 139 137 137 137 132 126 123 125 120 116 119 112 108 101 94 91 88 90 90 86 83 82 78 79 74 69 65 66 76 80
156 176 175 174 171 168 163 159 150 145 142 141 142 142 142 141 139 134 133 130 130 123 119 117 113 110 105 101 100 95 91 92 87 79 76 79 74 74 72 68 73 74 78
161 176 173 176 175 169 165 159 156 148 148 147 146 146 146 145 142 140 139 137 133 123 123 118 110 111 108 100 99 95 90 85 78 77 71 75 83 79 78 76 76 77 80
163 177 177 178 177 174 166 162 158 152 151 152 151 150 150 148 145 141 139 137 131 123 125 118 111 116 112 113 105 101 97 87 83 80 71 76 87 92 89 86 83 82 82
228 176 180 181 179 175 171 164 160 157 153 154 153 151 151 149 146 142 139 136 127 123 125 129 126 123 118 116 113 111 104 96 93 91 85 83 88 97 98 93 91 91 87
344 204 181 181 179 179 174 169 164 160 156 154 155 154 152 150 149 146 142 133 128 124 136 134 131 128 126 120 118 119 113 102 99 98 96 94 108 106 100 99 95 92 89
344 306 182 183 181 181 177 175 169 163 160 156 156 156 155 155 149 147 138 135 130 131 137 138 134 130 128 127 126 123 116 109 105 105 97 103 101 103 102 99 96 95 91
349 344 244 184 181 182 176 177 176 168 163 160 158 159 161 158 151 145 139 139 136 134 140 142 135 133 131 133 130 126 115 113 110 104 102 105 111 105 105 101 97 96 95
359 358 350 225 184 183 177 177 180 176 167 164 161 161 163 155 150 145 141 145 136 135 144 145 139 138 137 135 132 126 117 112 108 113 107 116 114 113 110 103 102 98 94
354 2 347 342 277 189 180 178 180 181 172 166 162 158 157 147 148 145 142 142 135 146 145 147 138 144 138 137 132 121 119 116 107 101 114 119 118 115 112 110 104 100 98
349 350 348 353 337 295 193 185 180 178 172 166 159 152 146 148 147 144 144 144 142 149 145 145 138 141 137 134 125 121 122 121 116 121 120 124 119 115 114 111 107 103 99
336 333 348 319 323 338 326 195 185 180 171 168 166 156 153 153 148 146 145 143 146 150 147 140 134 133 128 126 121 121 122 123 114 121 123 125 120 119 115 113 110 106 102
317 319 329 338 315 321 314 252 198 185 173 173 169 165 153 149 149 148 147 143 144 144 148 127 128 124 125 124 121 123 127 124 126 125 130 123 124 122 119 115 112 109 106
312 310 309 338 325 337 316 317 215 196 178 177 175 174 155 151 148 151 154 149 148 150 134 130 129 129 126 129 129 122 124 123 125 118 126 127 128 125 120 118 115 110 106
300 318 312 314 232 268 302 313 312 197 193 177 175 170 162 157 157 155 153 154 143 139 136 133 129 131 125 122 122 123 118 121 124 126 125 127 127 129 126 123 120 115 111
291 315 312 312 308 326 325 309 289 308 196 170 177 174 168 164 160 160 155 153 146 144 136 135 137 136 125 125 109 116 113 115 119 117 127 139 136 134 132 128 126 120 113
296 304 304 300 299 304 304 253 303 287 262 178 182 176 171 167 166 160 157 151 152 143 130 127 119 123 117 113 108 110 112 114 111 108 113 138 141 138 133 133 132 127 119
315 299 305 313 301 275 266 305 299 296 299 199 184 177 172 170 166 160 156 156 152 147 144 137 142 129 124 125 120 103 107 110 114 115 111 118 128 136 139 140 140 136 134
343 340 203 261 263 278 278 253 291 277 284 287 186 179 177 171 167 162 161 156 156 151 151 142 141 142 133 120 111 86 87 100 112 119 116 115 111 108 101 87 97 143 148
346 342 344 324 302 290 284 288 283 288 290 294 216 187 179 175 170 165 163 156 158 153 150 144 136 130 133 126 105 75 53 68 102 115 127 131 129 126 128 118 116 113 160
348 344 340 335 338 334 284 306 297 289 300 310 241 212 182 177 169 166 165 162 160 161 161 148 138 134 108 130 105 75 41 36 55 94 143 157 154 160 169 168 161 144 139
335 343 337 334 322 313 324 284 250 274 290 295 251 170 204 177 171 165 162 168 165 156 153 152 152 145 117 168 133 107 123 343 314 230 206 198 199 192 193 198 197 187 166
335 338 330 324 317 312 307 310 309 272 270 283 239 190 162 232 186 165 166 171 167 161 161 163 160 158 159 177 173 137 138 198 135 213 246 230 208 215 214 210 208 209 199
332 326 326 318 314 312 316 295 308 282 271 296 280 163 157 143 159 133 164 163 166 164 165 166 169 160 158 170 181 54 59 139 162 179 260 245 225 226 222 220 218 212 209
328 325 322 315 315 323 324 328 305 291 266 254 268 162 161 148 153 150 129 129 152 159 173 162 167 164 172 167 181 151 127 81 102 135 177 212 238 224 226 218 221 218 210
328 328 325 322 318 319 318 319 302 276 274 253 223 175 164 163 163 162 160 153 165 167 168 175 162 173 169 184 187 167 164 169 173 146 130 171 188 228 206 213 219 220 218